This is the latest recevied weather packets stored in our database for station/object KE5VT. If no packets are shown the sender has not sent any weather packets the latest 10 day(s).
| Time | Temp. | Humidity | Pressure | Rain* | Wind** | Luminosity | Snow |
|---|---|---|---|---|---|---|---|
| 1778033991 | 20° C | 56% | 1010.8 hPa | 0 mm | - | 0 W/m² | - |
| 1778033688 | 19.44° C | 56% | 1010.8 hPa | 0 mm | - | 0 W/m² | - |
| 1778033385 | 20° C | 57% | 1010.8 hPa | 0 mm | - | 0 W/m² | - |
| 1778033083 | 20° C | 55% | 1010.9 hPa | 0 mm | - | 0 W/m² | - |
| 1778032780 | 20° C | 56% | 1010.8 hPa | 0 mm | - | 0 W/m² | - |
| 1778032478 | 20° C | 56% | 1010.7 hPa | 0 mm | - | 0 W/m² | - |
| 1778032174 | 20° C | 57% | 1010.7 hPa | 0 mm | - | 0 W/m² | - |
| 1778031871 | 20° C | 55% | 1010.9 hPa | 0 mm | - | 0 W/m² | - |
| 1778031567 | 20° C | 55% | 1010.7 hPa | 0 mm | - | 0 W/m² | - |
| 1778031266 | 20° C | 55% | 1010.5 hPa | 0 mm | - | 0 W/m² | - |
| 1778030961 | 20.56° C | 54% | 1010.6 hPa | 0 mm | - | 0 W/m² | - |
| 1778030658 | 20.56° C | 52% | 1010.7 hPa | 0 mm | - | 0 W/m² | - |
| 1778030355 | 20.56° C | 52% | 1010.6 hPa | 0 mm | - | 0 W/m² | - |
| 1778030053 | 21.11° C | 53% | 1010.4 hPa | 0 mm | - | 0 W/m² | - |
| 1778029749 | 21.11° C | 51% | 1010.5 hPa | 0 mm | - | 0 W/m² | - |
| 1778029448 | 21.67° C | 50% | 1010.4 hPa | 0 mm | - | 0 W/m² | - |
| 1778029144 | 21.67° C | 50% | 1010.3 hPa | 0 mm | - | 0 W/m² | - |
| 1778028842 | 21.67° C | 48% | 1010.2 hPa | 0 mm | - | 0 W/m² | - |
| 1778028537 | 22.22° C | 48% | 1010.3 hPa | 0 mm | - | 0 W/m² | - |
| 1778028235 | 22.22° C | 48% | 1010.2 hPa | 0 mm | - | 0 W/m² | - |
| 1778027931 | 22.22° C | 47% | 1010.1 hPa | 0 mm | - | 0 W/m² | - |
| 1778027627 | 22.78° C | 46% | 1010.1 hPa | 0 mm | - | 0 W/m² | - |
| 1778027324 | 22.78° C | 46% | 1010 hPa | 0 mm | - | 0 W/m² | - |
| 1778027020 | 22.78° C | 47% | 1010 hPa | 0 mm | - | 0 W/m² | - |
| 1778026715 | 23.33° C | 45% | 1009.9 hPa | 0 mm | - | 1 W/m² | - |
* Rain latest hour (hover to see other rain measurements)
** Current wind speed in m/s (hover to see current wind gust speed)